Find Starlink 30518

NORAD ID: 58029 Int'l Des: 2023-156 Owner: SPXS Country: US Constellation: starlink operational
LEOCIRCULAR

当前视图

正在加载3D地球...

About Starlink 30518

Starlink 30518 (NORAD 58029) is a starlink constellation satellite (v2 mini) launched Oct 9, 2023 by SPXS of US. It operates in LEO, CIRCULAR orbit with a mass of 730.00 kg.

即将过境

Passes for default location (London). Set your location on the main map for personalized predictions.

高度历史

Loading altitude history...

两行轨道根数

1 58029U 23156B 26263.00475426 .00002378 00000-0 81521-4 0 9999
2 58029 53.1592 253.8853 0000903 88.7187 271.3919 15.34384143166096
Epoch: Sep 20, 2026 • Age: 15 hours

当前状态

高度 470.2 km
远地点 / 近地点 N/A
速度 7.63 km/s
星下点 -24.58°S, 135.13°W
发射日期 Oct 9, 2023
运行时间 2.9 years
类型 internet

技术详情

分类 Payload
质量 730.00 kg
干质量 700.00 kg
长度 0.30 m
跨度 29.00 m
形状 ? Box + pan
制造商 SPXS
平台类型 Starlink V2M
阶段状态 In Orbit
所有者/国家 SPXS/US

Most Searched